SCP
1 1 1 1 1 1 1 2 2 3 3 3 3 3 2 1 1 1 1 1 1 0 0 0 0 0 0 0 0 0 0 0 0 0 0 0 0 0 0 0 0 0 0
1 1 1 1 1 1 2 2 2 3 3 4 3 3 2 1 1 1 0 0 0 0 0 0 0 0 0 0 0 0 0 0 0 0 0 0 0 0 0 0 0 0 0
2 2 2 2 2 2 2 2 3 3 4 4 3 3 2 1 1 0 0 0 0 0 0 0 0 0 0 0 0 0 0 0 0 0 0 0 0 0 0 0 0 0 0
2 2 2 2 2 2 2 3 3 3 4 4 3 3 2 1 1 0 0 0 0 0 0 0 0 0 0 0 0 0 0 0 0 0 0 0 0 0 0 0 0 0 0
2 2 2 2 2 2 2 3 3 3 3 3 3 2 2 1 0 0 0 0 0 0 0 0 0 0 0 0 0 0 0 0 0 0 0 0 0 0 0 0 0 0 0
2 2 2 2 2 2 2 2 2 3 2 2 2 1 1 1 0 0 0 0 0 0 0 0 0 0 0 0 0 0 0 0 0 0 0 0 0 0 0 0 0 0 0
2 2 2 1 1 1 1 1 2 2 2 1 1 1 0 0 0 0 0 0 0 0 0 0 0 0 0 0 0 0 0 0 0 0 0 0 0 0 0 0 0 0 0
1 1 1 1 1 1 1 1 1 1 1 0 0 0 0 0 0 0 0 0 0 0 0 0 0 0 0 0 0 0 0 0 0 0 0 0 0 0 0 0 0 0 0
1 0 0 0 0 0 0 0 0 0 0 0 0 0 0 0 0 0 0 0 0 0 0 0 0 0 0 0 0 0 0 0 0 0 0 0 0 0 0 0 0 0 0
0 0 0 0 0 0 0 0 0 0 0 0 0 0 0 0 0 0 0 0 0 0 0 0 0 0 0 0 0 0 0 0 0 0 0 0 0 0 0 0 0 0 0
0 0 0 0 0 0 0 0 0 0 0 0 0 0 0 0 0 0 0 0 0 0 0 0 0 0 0 0 0 0 0 0 0 0 0 0 0 0 0 0 0 0 0
0 0 0 0 0 0 0 0 0 0 0 0 0 0 0 0 0 0 0 0 0 0 0 0 0 0 0 0 0 0 0 0 0 0 0 0 0 0 0 0 0 0 0
0 0 0 0 0 0 0 0 0 0 0 0 0 0 0 0 0 0 0 0 0 0 0 0 0 0 0 0 0 0 0 0 0 0 0 0 0 0 0 0 0 0 0
0 0 0 0 0 0 0 0 0 0 0 0 0 0 0 0 0 0 0 0 0 0 0 0 0 0 0 0 0 0 0 0 0 0 0 0 0 0 0 0 0 0 0
0 0 0 0 0 0 0 0 0 0 0 0 0 0 0 0 0 0 0 0 0 0 0 0 0 0 0 0 0 0 0 0 0 0 0 0 0 0 0 0 0 0 0
0 0 0 0 0 0 0 0 0 0 0 0 0 0 0 0 0 0 0 0 0 0 0 0 0 0 0 0 0 0 0 0 0 0 0 0 0 0 0 0 0 0 0
0 0 0 0 0 0 0 0 0 0 0 0 0 0 0 0 0 0 0 0 0 0 0 0 0 0 0 0 0 0 0 0 0 0 0 0 0 0 0 0 0 0 0
0 0 0 0 0 0 0 0 0 0 0 0 0 0 0 0 0 0 0 0 0 0 0 0 0 0 0 0 0 0 0 0 0 0 0 0 0 0 0 0 0 0 0
0 0 0 0 0 0 0 0 0 0 0 0 0 0 0 0 0 0 0 0 0 0 0 0 0 0 0 0 0 0 0 0 0 0 0 0 0 0 0 0 0 0 0
0 0 0 0 0 0 0 0 0 0 0 0 0 0 0 0 0 0 0 0 0 0 0 0 0 0 0 0 0 0 0 0 0 0 0 0 0 0 0 0 0 0 0
0 0 0 0 0 0 0 0 0 0 0 0 0 0 0 0 0 0 0 0 0 0 -0 -0 -0 0 0 0 0 0 0 0 0 0 0 0 0 0 -0 0 0 0 0
0 0 0 0 0 0 0 0 0 0 0 0 0 0 0 0 0 0 0 0 -0 -0 -0 -0 -0 0 0 0 0 0 0 0 0 0 0 0 0 0 0 0 0 0 0
0 0 0 0 0 0 0 0 0 0 0 0 0 0 0 0 0 -0 -0 -0 -0 -0 -0 -0 0 0 0 0 0 0 0 0 0 0 0 0 0 0 0 0 0 0 0
0 0 0 0 0 0 0 0 0 0 0 0 0 0 0 0 -0 -0 -0 -0 -0 0 0 0 0 0 0 0 0 0 0 0 0 0 0 0 0 0 0 0 0 0 0
0 0 0 0 0 0 0 0 0 0 0 0 0 0 0 0 -0 -0 -0 -0 0 0 0 0 0 0 0 0 0 0 0 0 0 0 0 0 0 0 0 0 0 0 0
0 0 0 0 0 0 0 0 0 0 0 0 0 0 0 0 0 -0 0 0 0 0 0 0 0 0 0 0 0 0 0 0 0 0 0 0 0 0 0 0 0 0 0
Wind_Speed
11 10 9 9 8 7 7 7 9 9 9 7 6 6 5 4 4 4 5 6 6 6 5 4 4 4 4 4 5 4 4 3 2 2 2 2 2 2 1 1 0 0 1
9 8 7 7 7 7 9 9 8 8 8 7 5 4 6 5 5 5 6 6 6 6 5 5 4 4 5 5 4 3 3 2 2 2 2 1 3 3 2 2 1 1 1
12 10 9 7 7 7 7 7 8 7 7 8 8 7 6 5 4 5 5 6 7 7 7 6 5 5 5 4 4 3 4 3 2 2 2 2 2 2 3 3 3 3 2
6 6 7 6 5 4 4 5 6 7 7 8 10 11 7 6 5 5 5 7 7 8 7 7 7 6 5 5 4 4 3 3 2 2 3 2 2 2 1 3 3 3 3
8 8 7 6 5 4 5 4 5 6 7 7 9 9 8 7 7 7 9 8 7 7 7 7 7 6 5 6 6 5 5 3 3 2 2 2 3 2 2 1 3 3 3
11 11 10 10 9 9 8 7 8 8 8 8 8 10 12 11 10 9 8 7 6 6 8 8 7 6 6 6 6 6 6 5 5 4 3 2 2 1 1 0 1 2 3
10 11 12 12 11 12 11 10 11 11 10 11 10 10 11 11 11 9 8 7 6 5 6 6 6 6 6 6 6 6 6 5 5 4 3 3 2 1 1 1 1 2 3
10 11 11 11 11 12 12 13 13 13 12 13 12 11 11 8 8 9 8 7 6 5 6 6 7 6 6 6 6 5 5 5 5 5 4 3 3 2 2 1 1 1 3
10 11 12 12 12 13 13 13 14 14 14 14 14 12 11 11 10 9 8 7 6 6 6 7 7 6 6 6 6 5 5 5 5 4 5 3 2 3 2 2 2 2 1
10 11 11 12 12 13 13 14 15 15 14 13 12 11 11 11 10 9 9 8 7 6 6 7 7 7 7 7 7 5 5 6 4 3 5 4 2 3 2 2 2 2 3
10 10 10 11 12 12 13 13 14 14 13 13 12 12 11 10 9 9 8 7 7 6 7 7 7 8 8 7 7 7 6 6 5 4 4 3 2 2 2 1 1 1 1
10 10 11 11 11 12 12 12 12 12 12 11 11 11 10 10 10 9 8 7 7 7 7 8 8 9 9 8 8 7 7 6 5 4 4 3 2 2 2 1 2 2 1
10 10 10 11 11 11 11 12 11 11 11 11 11 11 10 9 9 8 7 7 8 8 8 9 9 8 8 7 7 6 5 5 4 4 3 3 3 3 2 2 2 2 3
10 10 10 10 11 11 11 11 11 10 10 10 10 10 9 8 8 8 8 8 8 8 8 8 8 7 7 6 6 5 5 5 5 4 4 4 3 3 3 3 3 3 3
10 10 11 10 10 10 10 10 10 9 9 10 10 9 8 7 7 7 7 7 7 8 7 7 6 5 5 4 4 4 5 5 5 6 5 5 6 5 2 2 3 3 3
10 10 11 10 10 9 8 9 8 8 8 8 8 7 7 7 6 6 6 6 6 5 6 5 5 4 3 3 5 4 3 4 5 5 6 7 5 5 5 7 8 8 6
10 10 9 8 7 7 7 7 7 7 7 7 6 6 6 5 5 5 5 5 4 3 3 3 3 2 1 1 3 6 3 4 4 5 5 5 6 5 3 6 10 11 14
9 8 7 7 6 6 6 6 6 6 6 5 5 5 5 5 4 4 4 3 2 2 1 1 2 2 2 2 2 5 4 4 5 5 5 6 6 5 4 5 7 8 9
8 7 6 6 6 6 5 6 6 5 5 5 5 5 5 5 4 4 2 1 1 1 1 1 2 2 3 3 2 3 3 4 6 6 7 7 5 8 9 6 8 10 10
7 6 6 6 6 5 5 6 5 5 5 5 4 4 4 4 3 2 1 0 0 1 1 1 1 2 2 3 3 3 2 4 5 6 7 9 9 11 12 7 7 10 10
7 6 6 5 4 4 5 6 5 4 3 4 4 3 3 3 2 1 0 1 1 2 2 2 2 1 1 2 4 5 2 3 5 5 6 7 13 15 15 12 7 10 10
6 6 5 5 4 4 5 5 3 2 3 3 3 2 1 1 1 1 1 2 2 3 3 3 3 3 2 3 5 8 8 6 4 5 5 8 15 16 15 10 9 13 10
5 4 5 5 3 3 4 4 2 2 3 2 1 1 1 0 1 1 1 2 3 3 2 2 2 2 2 4 7 9 10 11 5 5 11 14 15 14 9 10 13 10 5
5 4 5 4 2 2 3 3 2 2 3 1 0 1 1 1 1 0 1 2 2 2 2 2 1 2 3 3 4 5 6 8 7 7 10 14 12 9 8 8 7 5 4
4 4 5 4 3 2 2 2 2 3 2 1 1 1 2 1 0 1 1 2 2 3 3 1 1 1 3 5 7 6 5 5 6 7 5 4 5 6 6 6 6 5 5
4 4 4 3 3 3 2 2 2 3 2 1 2 1 1 1 1 2 3 4 2 3 4 3 2 2 4 8 10 10 11 12 10 5 4 5 5 6 6 7 6 5 5
Wind_Direction
172 169 166 168 170 169 176 191 178 168 160 155 148 138 127 116 98 87 89 94 97 100 102 102 93 93 102 110 111 101 87 62 38 73 34 356 5 26 7 11 69 103 157
150 153 150 158 162 176 180 182 179 174 168 159 141 126 121 105 95 86 74 74 84 88 93 95 95 94 99 93 86 100 105 73 39 101 101 357 351 359 6 6 21 9 0
148 152 154 157 149 163 173 180 173 165 156 142 125 117 104 98 94 86 75 61 70 77 82 85 89 86 88 91 80 86 110 116 53 46 126 153 218 319 340 5 22 8 8
100 115 121 124 131 150 145 155 155 147 144 143 145 145 142 133 115 106 92 74 66 70 74 79 82 82 83 85 77 70 86 110 108 58 49 78 126 140 330 338 358 7 20
67 69 74 89 85 87 100 114 109 115 119 128 133 129 118 109 108 102 95 83 70 67 71 74 78 79 79 79 75 70 69 75 95 93 82 68 55 71 130 308 334 345 349
56 56 53 55 55 58 68 75 89 93 100 103 107 118 120 120 118 110 102 88 77 68 67 71 73 76 77 76 74 73 73 72 75 71 66 78 79 58 94 165 301 315 311
54 52 50 50 51 55 62 70 80 79 85 92 92 98 105 109 110 109 105 101 90 79 71 75 75 74 74 74 72 71 66 63 68 67 64 62 58 58 90 107 316 310 307
58 56 53 53 54 56 61 68 73 73 75 82 84 85 89 93 95 95 99 97 95 90 85 80 75 71 70 69 66 64 62 62 63 64 67 64 50 57 69 102 94 358 327
64 62 58 57 56 57 59 67 74 74 72 76 79 79 83 88 93 93 92 92 92 94 85 81 76 69 64 63 64 59 53 57 56 55 57 57 39 46 61 80 114 129 326
71 69 66 64 62 63 64 66 71 74 73 74 79 84 82 84 88 91 90 89 87 88 88 81 77 68 61 60 61 55 50 58 50 57 56 48 35 32 38 57 81 130 161
78 75 73 71 71 69 68 69 71 75 75 76 80 82 81 82 82 82 84 86 85 83 81 79 75 67 60 56 59 54 49 51 41 38 48 37 34 24 10 20 31 53 158
83 81 80 78 75 75 75 75 75 77 78 80 80 80 80 80 80 77 75 76 74 71 74 74 72 71 64 58 57 51 43 40 32 21 24 3 359 357 341 337 325 302 265
91 86 82 83 82 80 79 79 78 78 79 81 81 78 77 77 75 73 70 69 71 71 74 77 79 76 68 60 53 47 36 25 12 2 355 331 342 327 305 296 291 285 293
96 95 89 82 81 82 83 84 82 82 83 81 80 78 74 75 75 72 69 71 75 78 80 84 85 81 74 64 49 37 23 4 351 343 334 321 312 290 283 281 282 286 296
101 97 94 90 87 84 84 86 85 82 83 83 81 78 75 72 70 68 67 69 75 83 89 95 92 86 78 64 53 26 14 354 341 334 329 319 321 322 302 294 287 290 287
105 100 97 96 94 93 92 89 88 88 88 90 89 86 84 80 77 77 76 74 75 80 89 99 104 96 89 74 50 30 2 341 334 326 322 316 317 324 335 338 331 318 301
109 104 100 96 94 92 93 91 89 89 91 95 96 93 92 91 92 93 84 78 76 82 90 110 125 134 174 91 20 11 7 342 332 324 321 324 324 321 316 319 320 312 303
110 107 103 99 94 92 90 92 90 90 92 93 94 95 98 97 92 87 83 78 74 82 110 174 184 187 230 242 342 359 2 344 332 323 316 313 311 300 302 307 308 301 296
104 102 100 98 92 88 90 92 90 93 94 95 94 96 103 101 93 89 87 62 55 23 265 222 215 220 253 250 286 358 344 333 327 324 327 325 317 305 311 309 303 304 302
97 98 94 92 89 84 87 90 91 91 95 99 99 101 108 111 110 117 124 321 359 308 302 273 252 234 240 249 270 327 334 325 320 320 320 322 316 311 312 301 291 294 297
103 99 93 89 89 90 89 88 89 97 107 107 104 103 111 127 136 119 22 352 357 0 346 332 328 324 275 289 314 332 326 307 310 313 313 310 312 312 309 304 277 271 282
105 102 98 93 87 92 92 92 103 120 115 111 102 98 136 175 148 139 347 10 32 32 14 14 6 4 16 24 354 351 344 339 306 299 300 302 309 311 312 310 298 302 304
113 106 105 96 86 94 104 113 143 137 120 115 110 120 147 187 163 153 72 48 61 68 43 39 24 3 3 355 356 349 340 338 328 302 308 311 312 316 315 313 316 319 314
114 110 106 104 106 119 124 143 152 134 123 126 197 243 265 290 350 46 127 127 116 99 74 48 18 340 328 328 333 331 327 330 330 321 315 314 314 320 316 316 322 320 305
119 118 122 129 139 138 136 154 143 128 128 189 269 276 259 237 170 79 90 143 169 164 148 161 208 319 318 305 315 317 314 313 307 314 313 326 335 340 339 335 329 325 329
125 122 129 138 146 140 146 169 163 149 148 224 280 270 255 224 162 120 70 48 89 121 141 163 178 256 279 307 320 325 322 322 324 326 323 327 332 331 328 327 325 323 326